TimeCST,TemperatureF,Dew PointF,Humidity,Sea Level PressureIn,VisibilityMPH,Wind Direction,Wind SpeedMPH,Gust SpeedMPH,PrecipitationIn,Events,Conditions,WindDirDegrees,DateUTC
12:15 AM,26.6,23.0,86,30.59,1.0,North,4.6,-,0.01,Snow,Light Snow,10,2013-11-24 06:15:00
12:17 AM,26.6,23.0,86,30.59,0.8,North,3.5,-,0.01,Snow,Light Snow,10,2013-11-24 06:17:00
12:31 AM,24.8,23.0,93,30.59,0.5,North,5.8,-,0.03,Fog-Snow,Snow,10,2013-11-24 06:31:00
12:48 AM,24.8,23.0,93,30.58,0.8,NNE,5.8,-,0.06,Snow,Light Snow,20,2013-11-24 06:48:00
12:53 AM,25.0,23.0,92,30.65,0.8,NE,5.8,-,0.06,Snow,Light Snow,40,2013-11-24 06:53:00
1:08 AM,24.8,23.0,93,30.57,0.8,NE,5.8,-,0.02,Snow,Light Snow,40,2013-11-24 07:08:00
1:53 AM,25.0,21.9,88,30.63,0.8,NE,4.6,-,0.10,Snow,Light Snow,50,2013-11-24 07:53:00
2:02 AM,24.8,21.2,86,30.56,0.5,NE,4.6,-,0.02,Fog-Snow,Snow,50,2013-11-24 08:02:00
2:25 AM,24.8,21.2,86,30.56,0.5,ENE,5.8,-,0.07,Fog-Snow,Snow,60,2013-11-24 08:25:00
2:33 AM,24.8,21.2,86,30.56,0.5,NE,4.6,-,0.09,Fog-Snow,Snow,50,2013-11-24 08:33:00
2:39 AM,24.8,21.2,86,30.56,1.0,ENE,5.8,-,0.09,Snow,Light Snow,60,2013-11-24 08:39:00
2:48 AM,24.8,21.2,86,30.55,1.2,East,4.6,-,0.10,Snow,Light Snow,80,2013-11-24 08:48:00
2:53 AM,25.0,21.9,88,30.63,1.2,East,4.6,-,0.10,Snow,Light Snow,80,2013-11-24 08:53:00
3:00 AM,24.8,23.0,93,30.55,1.0,ENE,4.6,-,0.00,Snow,Light Snow,70,2013-11-24 09:00:00
3:12 AM,24.8,23.0,93,30.55,2.0,ENE,4.6,-,0.01,Snow,Light Snow,70,2013-11-24 09:12:00
3:21 AM,24.8,21.2,86,30.55,3.0,East,6.9,-,0.01,Snow,Light Snow,80,2013-11-24 09:21:00
3:53 AM,24.1,21.9,91,30.61,4.0,East,5.8,-,0.01,Snow,Light Snow,100,2013-11-24 09:53:00
4:11 AM,24.8,21.2,86,30.53,2.0,East,5.8,-,0.01,Snow,Light Snow,100,2013-11-24 10:11:00
4:18 AM,24.8,21.2,86,30.53,1.5,East,5.8,-,0.01,Snow,Light Snow,100,2013-11-24 10:18:00
4:28 AM,24.8,21.2,86,30.53,0.8,East,5.8,-,0.02,Snow,Light Snow,100,2013-11-24 10:28:00
4:36 AM,24.8,21.2,86,30.52,0.8,East,5.8,-,0.03,Snow,Light Snow,80,2013-11-24 10:36:00
4:43 AM,24.8,21.2,86,30.51,1.2,ENE,5.8,-,0.03,Snow,Light Snow,70,2013-11-24 10:43:00
4:53 AM,24.1,21.9,91,30.59,2.0,ENE,6.9,-,0.03,Snow,Light Snow,70,2013-11-24 10:53:00
5:14 AM,24.8,21.2,86,30.50,2.5,ENE,6.9,-,0.01,Snow,Light Snow,70,2013-11-24 11:14:00
5:25 AM,24.8,21.2,86,30.50,4.0,ENE,6.9,-,0.01,Snow,Light Snow,60,2013-11-24 11:25:00
5:53 AM,24.1,21.9,91,30.58,4.0,East,8.1,-,0.01,Snow,Light Snow,80,2013-11-24 11:53:00
6:18 AM,24.8,21.2,86,30.49,2.0,ENE,6.9,-,0.00,Snow,Light Snow,70,2013-11-24 12:18:00
6:27 AM,24.8,21.2,86,30.48,1.8,ENE,8.1,-,0.01,Snow,Light Snow,70,2013-11-24 12:27:00
6:34 AM,24.8,21.2,86,30.48,1.8,East,5.8,-,0.01,Snow,Light Snow,90,2013-11-24 12:34:00
6:42 AM,24.8,21.2,86,30.48,2.0,East,6.9,-,0.01,Snow,Light Snow,80,2013-11-24 12:42:00
6:53 AM,24.1,21.9,91,30.57,2.5,East,4.6,-,0.01,Snow,Light Snow,80,2013-11-24 12:53:00
7:00 AM,24.8,21.2,86,30.49,3.0,East,4.6,-,0.00,Snow,Light Snow,80,2013-11-24 13:00:00
7:08 AM,24.8,21.2,86,30.48,2.0,East,4.6,-,0.00,Snow,Light Snow,90,2013-11-24 13:08:00
7:14 AM,24.8,21.2,86,30.48,1.8,East,5.8,-,0.01,Snow,Light Snow,100,2013-11-24 13:14:00
7:26 AM,24.8,21.2,86,30.48,1.8,ENE,3.5,-,0.01,Snow,Light Snow,70,2013-11-24 13:26:00
7:40 AM,24.8,21.2,86,30.48,0.5,Calm,Calm,-,0.02,Snow,Light Snow,0,2013-11-24 13:40:00
7:43 AM,24.8,21.2,86,30.48,0.2,Calm,Calm,-,0.02,Fog-Snow,Snow,0,2013-11-24 13:43:00
7:53 AM,24.1,21.0,88,30.56,0.5,East,3.5,-,0.03,Fog-Snow,Light Snow,90,2013-11-24 13:53:00
8:02 AM,24.8,21.2,86,30.47,0.5,East,3.5,-,0.00,Snow,Light Snow,100,2013-11-24 14:02:00
8:18 AM,24.8,21.2,86,30.47,0.5,East,3.5,-,0.00,,Overcast,100,2013-11-24 14:18:00
8:19 AM,24.8,21.2,86,30.47,2.5,East,3.5,-,0.00,,Overcast,100,2013-11-24 14:19:00
8:36 AM,24.8,21.2,86,30.45,1.2,North,-9999.0,-,0.01,Snow,Light Snow,0,2013-11-24 14:36:00
8:51 AM,24.8,21.2,86,30.46,1.5,East,5.8,-,0.01,Snow,Light Snow,90,2013-11-24 14:51:00
8:53 AM,25.0,21.9,88,30.53,1.5,East,5.8,-,0.01,Snow,Light Snow,90,2013-11-24 14:53:00
9:10 AM,24.8,21.2,86,30.46,1.5,East,4.6,-,0.00,Snow,Light Snow,100,2013-11-24 15:10:00
9:21 AM,24.8,21.2,86,30.46,2.5,ESE,3.5,-,0.00,Snow,Light Snow,120,2013-11-24 15:21:00
9:29 AM,24.8,21.2,86,30.46,5.0,ESE,5.8,-,0.00,,Overcast,120,2013-11-24 15:29:00
9:46 AM,24.8,21.2,86,30.45,5.0,ESE,6.9,-,0.00,,Overcast,120,2013-11-24 15:46:00
9:53 AM,25.0,21.9,88,30.53,7.0,ESE,6.9,-,0.00,,Overcast,120,2013-11-24 15:53:00
10:06 AM,24.8,23.0,93,30.45,10.0,SE,8.1,-,N/A,,Overcast,140,2013-11-24 16:06:00
10:53 AM,26.1,23.0,88,30.51,9.0,SSE,8.1,-,0.00,Snow,Light Snow,150,2013-11-24 16:53:00
11:23 AM,26.6,23.0,86,30.42,2.0,SSE,11.5,-,0.01,Snow,Light Snow,160,2013-11-24 17:23:00
11:28 AM,26.6,23.0,86,30.42,3.0,SSE,8.1,-,0.01,Snow,Light Snow,160,2013-11-24 17:28:00
11:53 AM,26.1,23.0,88,30.48,4.0,South,6.9,-,0.01,Snow,Light Snow,180,2013-11-24 17:53:00
11:57 AM,26.6,23.0,86,30.41,1.8,South,6.9,-,0.00,Snow,Light Snow,180,2013-11-24 17:57:00
12:03 PM,26.6,24.8,93,30.40,1.0,South,5.8,-,0.00,Snow,Light Snow,180,2013-11-24 18:03:00
12:14 PM,26.6,24.8,93,30.40,0.8,South,6.9,-,0.01,Snow,Light Snow,190,2013-11-24 18:14:00
12:25 PM,26.6,24.8,93,30.39,1.2,South,8.1,-,0.01,Snow,Light Snow,190,2013-11-24 18:25:00
12:31 PM,26.6,24.8,93,30.38,3.0,South,8.1,-,0.01,Snow,Light Snow,190,2013-11-24 18:31:00
12:45 PM,26.6,24.8,93,30.37,8.0,South,9.2,-,0.01,,Overcast,180,2013-11-24 18:45:00
12:53 PM,28.0,24.1,85,30.43,10.0,South,9.2,-,0.01,,Overcast,190,2013-11-24 18:53:00
12:59 PM,28.4,24.8,86,30.35,10.0,South,9.2,-,N/A,,Overcast,190,2013-11-24 18:59:00
1:08 PM,28.4,24.8,86,30.34,10.0,South,10.4,-,N/A,,Overcast,190,2013-11-24 19:08:00
1:19 PM,28.4,24.8,86,30.34,10.0,South,12.7,-,N/A,,Overcast,190,2013-11-24 19:19:00
1:27 PM,28.4,24.8,86,30.34,10.0,South,11.5,-,N/A,,Overcast,190,2013-11-24 19:27:00
1:53 PM,28.0,24.1,85,30.39,10.0,South,11.5,-,N/A,,Overcast,190,2013-11-24 19:53:00
2:01 PM,28.4,23.0,80,30.32,10.0,South,11.5,-,N/A,,Overcast,190,2013-11-24 20:01:00
2:53 PM,28.0,24.1,85,30.35,10.0,South,13.8,-,0.52,,Overcast,180,2013-11-24 20:53:00
3:19 PM,28.4,24.8,86,30.27,10.0,South,12.7,-,N/A,,Overcast,170,2013-11-24 21:19:00
3:53 PM,28.0,24.1,85,30.33,10.0,South,13.8,-,N/A,,Overcast,170,2013-11-24 21:53:00
4:25 PM,28.4,24.8,86,30.25,10.0,South,12.7,-,N/A,,Overcast,180,2013-11-24 22:25:00
4:53 PM,27.0,24.1,89,30.31,10.0,South,12.7,-,N/A,,Overcast,190,2013-11-24 22:53:00
5:53 PM,27.0,24.1,89,30.29,10.0,South,12.7,-,N/A,,Overcast,180,2013-11-24 23:53:00
6:53 PM,27.0,23.0,85,30.28,10.0,South,12.7,-,N/A,,Overcast,170,2013-11-25 00:53:00
7:49 PM,26.6,24.8,93,30.19,10.0,South,13.8,-,N/A,,Overcast,180,2013-11-25 01:49:00
7:53 PM,26.1,24.1,92,30.27,10.0,South,13.8,-,N/A,,Overcast,180,2013-11-25 01:53:00
8:04 PM,26.6,24.8,93,30.19,10.0,South,13.8,-,N/A,,Overcast,170,2013-11-25 02:04:00
8:13 PM,26.6,24.8,93,30.19,10.0,South,16.1,-,N/A,,Overcast,170,2013-11-25 02:13:00
8:53 PM,26.1,24.1,92,30.24,10.0,South,15.0,-,N/A,,Overcast,170,2013-11-25 02:53:00
9:25 PM,26.6,24.8,93,30.16,10.0,South,16.1,-,N/A,,Overcast,170,2013-11-25 03:25:00
9:53 PM,27.0,25.0,92,30.23,10.0,South,12.7,-,N/A,,Overcast,180,2013-11-25 03:53:00
10:53 PM,27.0,24.1,89,30.20,10.0,South,16.1,-,N/A,,Overcast,190,2013-11-25 04:53:00
11:53 PM,28.0,24.1,85,30.17,10.0,SSW,19.6,-,N/A,,Overcast,200,2013-11-25 05:53:00